Dayton-Wright Brothers (MGY)

 

Airport Diagram
No Airport Diagram Available
Current Weather/Forecast (VFR Conditions)
METAR KMGY 182353Z AUTO 30007KT 10SM CLR 15/M02 A2986 RMK AO2 SLP113 T01501017 10167 20150 58001
TAF

Airport Information

All Charts
General
Chart Name View
TAKEOFF MINIMUMS
ALTERNATE MINIMUMS
TAKEOFF MINIMUMS
ALTERNATE MINIMUMS

Arrivals
Chart Name Download
DANEI THREE
DANEI THREE

Approaches
Chart Name Download
RNAV (GPS) RWY 02
RNAV (GPS) RWY 20
LOC RWY 20
NDB-A
RNAV (GPS) RWY 02
RNAV (GPS) RWY 20
LOC RWY 20
NDB-A


Airport Statistics
Departures Arrivals Local
All Collected Stats since June 2016: 24 8 3
2021 Stats: 3 1 2
April Stats: 0 0 1

Inbound Traffic (Arrivals) - 0

No inbound traffic.


Outbound Traffic (Departures) - 0

No outbound traffic.


Local Traffic (Pattern) - 0

No local traffic.